Pasco, WA
on Tuesday, February 26, 2013

Tuesday
Previous Day Next Day
Daily Summary
 ActualAverageRecord
Temperature
Mean Temperature °F / °C 41°F / 5°C  
Max Temperature 51°F / 11°C 53°F / 12°C 62°F / 16°C (2005)
Min Temperature 29°F / -2°C 29°F / -2°C 0°F / -17°C (1989)
Degree Days
Heating Degree Days 25 24  
Month to date heating degree days 668 685  
Since 1 July heating degree days 3579 3836  
Cooling Degree Days 0 0  
Month to date cooling degree days 0 0  
Year to date cooling degree days 0 0  
Moisture
Dew Point 27°F / -3°C   
Average Humidity 62    
Maximum Humidity 85    
Minimum Humidity 38    
Precipitation
Precipitation 0.00 in / 0.00 cm in / cm 0.30 in / 0.76 cm (1978)
Month to date precipitation 0.06  
Year to date precipitation 0.42  
Snow
Snow 0.00 in / 0.00 cm in / cm in / cm ()
Snow Depth 0.00 in / 0.00 cm   
Wind
Wind Speed 8 mph / 13 km/h   
Max Wind Speed 14 mph / 23 km/h   
Max Gust Speed 18 mph / 29 km/h   
Visibility 10 miles / 16 kilometers   
Events     

Key: T is trace of precipitation, MM is missing value
Source: NWS Daily Summary
Time(PST)TemperatureDew PointHumidity Pressure Visibility Wind DirectionWind SpeedGust SpeedPrecipitationEvents Conditions
12:53 AM 34.0°F / 1.1°C 26.1°F / -3.3°C 73% 30.27 in / 1024.8 hPa 10.0 miles / 16.1 kilometers SW 12.7 mph / 20.4 km/h - N/A   Clear
1:53 AM 33.1°F / 0.6°C 26.1°F / -3.3°C 75% 30.28 in / 1025.2 hPa 10.0 miles / 16.1 kilometers SW 11.5 mph / 18.5 km/h - N/A   Clear
2:53 AM 33.1°F / 0.6°C 27.0°F / -2.8°C 78% 30.29 in / 1025.6 hPa 10.0 miles / 16.1 kilometers SSW 11.5 mph / 18.5 km/h - N/A   Clear
3:53 AM 32.0°F / 0.0°C 27.0°F / -2.8°C 82% 30.30 in / 1025.9 hPa 10.0 miles / 16.1 kilometers SSW 6.9 mph / 11.1 km/h - N/A   Clear
4:53 AM 30.9°F / -0.6°C 26.1°F / -3.3°C 82% 30.32 in / 1026.5 hPa 10.0 miles / 16.1 kilometers South 3.5 mph / 5.6 km/h - N/A   Clear
5:53 AM 28.9°F / -1.7°C 25.0°F / -3.9°C 85% 30.33 in / 1027.1 hPa 10.0 miles / 16.1 kilometers Calm Calm - N/A   Clear
6:53 AM 30.9°F / -0.6°C 25.0°F / -3.9°C 79% 30.35 in / 1027.5 hPa 10.0 miles / 16.1 kilometers SSE 4.6 mph / 7.4 km/h - N/A   Clear
7:53 AM 32.0°F / 0.0°C 27.0°F / -2.8°C 82% 30.36 in / 1028.0 hPa 10.0 miles / 16.1 kilometers ESE 4.6 mph / 7.4 km/h - N/A   Clear
8:53 AM 39.9°F / 4.4°C 28.9°F / -1.7°C 65% 30.37 in / 1028.4 hPa 10.0 miles / 16.1 kilometers SSW 9.2 mph / 14.8 km/h - N/A   Clear
9:53 AM 43.0°F / 6.1°C 28.9°F / -1.7°C 58% 30.38 in / 1028.5 hPa 10.0 miles / 16.1 kilometers SSW 10.4 mph / 16.7 km/h - N/A   Clear
10:53 AM 46.0°F / 7.8°C 28.0°F / -2.2°C 50% 30.37 in / 1028.2 hPa 10.0 miles / 16.1 kilometers SSW 11.5 mph / 18.5 km/h - N/A   Clear
11:53 AM 48.0°F / 8.9°C 27.0°F / -2.8°C 44% 30.35 in / 1027.8 hPa 10.0 miles / 16.1 kilometers South 8.1 mph / 13.0 km/h - N/A   Clear
12:53 PM 48.9°F / 9.4°C 26.1°F / -3.3°C 41% 30.33 in / 1027.0 hPa 10.0 miles / 16.1 kilometers South 8.1 mph / 13.0 km/h 16.1 mph / 25.9 km/h N/A   Clear
1:53 PM 50.0°F / 10.0°C 27.0°F / -2.8°C 41% 30.30 in / 1026.1 hPa 10.0 miles / 16.1 kilometers SSW 9.2 mph / 14.8 km/h - N/A   Clear
2:53 PM 51.1°F / 10.6°C 27.0°F / -2.8°C 39% 30.30 in / 1026.0 hPa 10.0 miles / 16.1 kilometers SW 11.5 mph / 18.5 km/h 16.1 mph / 25.9 km/h N/A   Clear
3:53 PM 50.0°F / 10.0°C 26.1°F / -3.3°C 39% 30.29 in / 1025.6 hPa 10.0 miles / 16.1 kilometers South 8.1 mph / 13.0 km/h - N/A   Clear
4:53 PM 48.9°F / 9.4°C 26.1°F / -3.3°C 41% 30.28 in / 1025.3 hPa 10.0 miles / 16.1 kilometers SE 3.5 mph / 5.6 km/h - N/A   Clear
5:53 PM 46.0°F / 7.8°C 27.0°F / -2.8°C 47% 30.27 in / 1025.0 hPa 10.0 miles / 16.1 kilometers ESE 3.5 mph / 5.6 km/h - N/A   Clear
6:53 PM 41.0°F / 5.0°C 27.0°F / -2.8°C 57% 30.27 in / 1024.8 hPa 10.0 miles / 16.1 kilometers East 5.8 mph / 9.3 km/h - N/A   Clear
7:53 PM 39.0°F / 3.9°C 27.0°F / -2.8°C 62% 30.26 in / 1024.6 hPa 10.0 miles / 16.1 kilometers Calm Calm - N/A   Clear
8:53 PM 36.0°F / 2.2°C 27.0°F / -2.8°C 70% 30.26 in / 1024.6 hPa 10.0 miles / 16.1 kilometers East 3.5 mph / 5.6 km/h - N/A   Clear
9:53 PM 34.0°F / 1.1°C 26.1°F / -3.3°C 73% 30.25 in / 1024.1 hPa 10.0 miles / 16.1 kilometers Calm Calm - N/A   Clear
10:53 PM 32.0°F / 0.0°C 28.0°F / -2.2°C 85% 30.24 in / 1023.9 hPa 10.0 miles / 16.1 kilometers Calm Calm - N/A   Mostly Cloudy
11:53 PM 32.0°F / 0.0°C 28.0°F / -2.2°C 85% 30.23 in / 1023.7 hPa 10.0 miles / 16.1 kilometers Calm Calm - N/A   Mostly Cloudy
Moon Phase
Feb. 26 Mar. 04 Mar. 11 Mar. 19 Mar. 27
Sunrise:06:40 AM (PST) Moon Rise:07:08 PM (PST)2/26
Sunset:05:38 PM (PST) Moon Set:06:39 AM (PST)2/26

Copyright © 2014 The Weather Underground, Inc.